Location: Hamburg
(53.5554°N, 9.9941°E)
Time: 06:02:02
(UTC+01:00)

ISS - Pass Details

Date: 11 January 2018
Orbit: 401 x 406 km, 51.6° (Epoch: 17 January)

Event Time Altitude Azimuth Distance (km) Brightness Sun altitude
Exits shadow 05:42:28 28° 140° (SE) 797 -2.0 -24.0°
Drops below altitude 10° 05:44:18 10° 122° (ESE) 1,464 -0.2 -23.8°
Sets 05:46:25 0° 116° (ESE) 2,323 1.2 -23.5°
